Location: Düngen
(52.0952°N, 10.0219°E)
Time: 18:15:54
(UTC+00:00)

Ariane Rocket - Pass Details

Date: 11 March 2026
Orbit: 754 x 764 km, 98.4° (Epoch: 20 April)

Event Time Altitude Azimuth Distance (km) Brightness Sun altitude
Exits shadow 19:57:41 36° 44° (NE) 1,197 3.8 -24.6°
Drops below altitude 10° 20:01:37 10° 358° (N) 2,301 5.8 -25.1°
Sets 20:04:03 0° 350° (N) 3,229 6.8 -25.5°
